KO4T-4 Weather Reports


time (UTC)temp
C
wind
direction
speed
KPH
gust
KPH
rain 1hr
cm
rain 24hr
cm
rain mn
cm
humidity
%
barometer
mb
20260508185506 21 161 3.2 9.7 0.00 0.00 0.00 43 1015.0
20260508185007 21 185 3.2 16.1 0.00 0.00 0.00 43 1015.1
20260508184506 22 213 1.6 16.1 0.00 0.00 0.00 44 1015.0
20260508184006 22 244 1.6 6.4 0.00 0.00 0.00 43 1015.1
20260508183506 22 195 1.6 9.7 0.00 0.00 0.00 46 1015.1
20260508183006 21 200 3.2 9.7 0.00 0.00 0.00 47 1015.1
20260508182505 21 205 3.2 12.9 0.00 0.00 0.00 47 1015.2
20260508182006 21 171 1.6 12.9 0.00 0.00 0.00 45 1015.3
20260508181506 21 83 3.2 8.0 0.00 0.00 0.00 47 1015.5
20260508181005 21 136 3.2 8.0 0.00 0.00 0.00 46 1015.5
20260508180506 21 245 3.2 8.0 0.00 0.00 0.00 48 1015.7
20260508180006 20 250 3.2 9.7 0.00 0.00 0.00 48 1015.7
20260508175505 20 221 3.2 11.3 0.00 0.00 0.00 47 1015.7
20260508175006 20 222 3.2 11.3 0.00 0.00 0.00 47 1015.6
20260508174506 20 229 1.6 11.3 0.00 0.00 0.00 44 1015.7
20260508174006 20 208 1.6 11.3 0.00 0.00 0.00 47 1015.8
20260508173506 20 66 3.2 6.4 0.00 0.00 0.00 46 1015.8
20260508173006 20 230 3.2 6.4 0.00 0.00 0.00 46 1015.9
20260508172506 20 208 3.2 11.3 0.00 0.00 0.00 46 1016.0
20260508172005 20 204 3.2 11.3 0.00 0.00 0.00 45 1016.0
20260508171507 20 244 3.2 6.4 0.00 0.00 0.00 49 1016.1
20260508171006 20 263 3.2 8.0 0.00 0.00 0.00 49 1016.3
20260508170505 20 274 3.2 9.7 0.00 0.00 0.00 47 1016.3
20260508170006 20 260 3.2 9.7 0.00 0.00 0.00 46 1016.4
20260508165506 20 206 3.2 9.7 0.00 0.00 0.00 47 1016.5
20260508165006 19 194 3.2 9.7 0.00 0.00 0.00 47 1016.6
20260508164506 18 310 3.2 8.0 0.00 0.00 0.00 48 1016.5
20260508164005 18 228 3.2 8.0 0.00 0.00 0.00 45 1016.6
20260508163506 19 274 3.2 8.0 0.00 0.00 0.00 45 1016.7
20260508163005 18 303 1.6 11.3 0.00 0.00 0.00 46 1016.8
20260508162506 20 220 1.6 11.3 0.00 0.00 0.00 45 1016.8
20260508162006 20 114 1.6 4.8 0.00 0.00 0.00 43 1016.9
20260508161506 19 67 1.6 6.4 0.00 0.00 0.00 44 1016.9
20260508161006 18 78 3.2 6.4 0.00 0.00 0.00 45 1017.1
20260508160506 18 99 3.2 9.7 0.00 0.00 0.00 47 1017.2
20260508160005 18 231 3.2 9.7 0.00 0.00 0.00 47 1017.3
20260508155506 18 253 1.6 8.0 0.00 0.00 0.00 50 1017.4
20260508155006 18 244 1.6 9.7 0.00 0.00 0.00 51 1017.5
20260508154506 18 224 1.6 9.7 0.00 0.00 0.00 51 1017.6
20260508154005 18 286 1.6 9.7 0.00 0.00 0.00 51 1017.6
20260508153506 18 303 1.6 8.0 0.00 0.00 0.00 53 1017.6
20260508153005 18 308 1.6 6.4 0.00 0.00 0.00 52 1017.5
20260508152505 17 306 3.2 9.7 0.00 0.00 0.00 50 1017.5
20260508152005 17 347 3.2 9.7 0.00 0.00 0.00 55 1017.5
20260508151506 17 329 1.6 9.7 0.00 0.00 0.00 51 1017.6
20260508151006 17 226 1.6 9.7 0.00 0.00 0.00 51 1017.6
20260508150505 17 53 1.6 6.4 0.00 0.00 0.00 51 1017.6
20260508150006 17 326 1.6 8.0 0.00 0.00 0.00 52 1017.8
20260508145506 17 244 1.6 8.0 0.00 0.00 0.00 51 1017.9
20260508145005 17 237 1.6 8.0 0.00 0.00 0.00 51 1017.8
20260508144506 17 270 1.6 8.0 0.00 0.00 0.00 55 1017.8
20260508144006 17 312 0.0 4.8 0.00 0.00 0.00 52 1017.9
20260508143505 17 14 0.0 3.2 0.00 0.00 0.00 54 1018.0
20260508143006 17 50 0.0 6.4 0.00 0.00 0.00 54 1017.9
20260508142505 16 36 0.0 6.4 0.00 0.00 0.00 57 1018.0
20260508142006 16 16 1.6 4.8 0.00 0.00 0.00 55 1018.0
20260508141506 16 313 1.6 4.8 0.00 0.00 0.00 56 1018.0
20260508141005 15 292 1.6 4.8 0.00 0.00 0.00 53 1018.0
20260508140505 15 291 1.6 4.8 0.00 0.00 0.00 55 1017.9
20260508140006 15 290 1.6 8.0 0.00 0.00 0.00 57 1018.0
20260508135506 15 286 0.0 8.0 0.00 0.00 0.00 58 1018.0
20260508135005 15 282 0.0 4.8 0.00 0.00 0.00 56 1017.9
20260508134506 15 297 0.0 3.2 0.00 0.00 0.00 54 1017.9
20260508134005 15 266 0.0 3.2 0.00 0.00 0.00 59 1018.0
20260508133506 15 295 0.0 1.6 0.00 0.00 0.00 63 1018.0
20260508133005 15 308 0.0 1.6 0.00 0.00 0.00 65 1018.0
20260508132506 14 329 0.0 3.2 0.00 0.00 0.00 67 1017.9
20260508132005 14 300 0.0 3.2 0.00 0.00 0.00 68 1018.0
20260508131506 13 293 0.0 1.6 0.00 0.00 0.00 71 1018.0
20260508131005 13 292 0.0 3.2 0.00 0.00 0.00 72 1018.0
20260508130506 13 274 0.0 3.2 0.00 0.00 0.00 71 1017.8
20260508130006 13 268 1.6 3.2 0.00 0.00 0.00 72 1017.8
20260508125506 13 275 1.6 3.2 0.00 0.00 0.00 75 1017.8
20260508125005 12 284 0.0 3.2 0.00 0.00 0.00 79 1017.8
20260508124506 12 284 0.0 3.2 0.00 0.00 0.00 77 1017.8
20260508124005 12 280 0.0 1.6 0.00 0.00 0.00 77 1017.7
20260508123505 12 271 0.0 1.6 0.00 0.00 0.00 79 1017.7
20260508123006 13 0 0.0 0.0 0.00 0.00 0.00 78 1017.7
20260508122505 13 0 0.0 0.0 0.00 0.00 0.00 81 1017.7
20260508122006 13 0 0.0 0.0 0.00 0.00 0.00 85 1017.7
20260508121505 12 0 0.0 0.0 0.00 0.00 0.00 88 1017.6
20260508121006 12 0 0.0 0.0 0.00 0.03 0.00 90 1017.6
20260508120505 11 0 0.0 0.0 0.00 0.05 0.00 92 1017.5
20260508120005 11 0 0.0 0.0 0.00 0.05 0.00 94 1017.4
20260508115505 10 0 0.0 0.0 0.00 0.10 0.00 95 1017.3
20260508115006 9 0 0.0 0.0 0.00 0.15 0.00 95 1017.3
20260508114505 8 0 0.0 0.0 0.00 0.18 0.00 95 1017.2
20260508114006 8 0 0.0 0.0 0.00 0.20 0.00 95 1017.2
20260508113505 7 0 0.0 0.0 0.00 0.25 0.00 95 1017.0
20260508113005 7 0 0.0 0.0 0.00 0.28 0.00 96 1016.9
20260508112505 7 0 0.0 0.0 0.00 0.33 0.00 96 1016.8
20260508112006 7 0 0.0 0.0 0.00 0.33 0.00 96 1016.7
20260508111505 6 0 0.0 0.0 0.00 0.36 0.00 96 1016.6
20260508111006 6 0 0.0 0.0 0.00 0.36 0.00 96 1016.4
20260508110505 6 0 0.0 0.0 0.00 0.36 0.00 96 1016.3
20260508110005 6 0 0.0 0.0 0.00 0.36 0.00 96 1016.4
20260508105506 6 0 0.0 0.0 0.00 0.36 0.00 96 1016.4
20260508105005 6 0 0.0 0.0 0.00 0.36 0.00 96 1016.4
20260508104505 6 0 0.0 0.0 0.00 0.36 0.00 96 1016.1
20260508104005 6 0 0.0 0.0 0.00 0.36 0.00 96 1016.0
20260508103505 6 0 0.0 0.0 0.00 0.36 0.00 96 1015.9
20260508103006 6 0 0.0 0.0 0.00 0.36 0.00 96 1015.8
20260508102505 6 0 0.0 0.0 0.00 0.36 0.00 96 1015.7
20260508102006 6 0 0.0 0.0 0.00 0.36 0.00 95 1015.6
20260508101506 6 0 0.0 0.0 0.00 0.36 0.00 95 1015.5
20260508101005 6 0 0.0 0.0 0.00 0.36 0.00 95 1015.5
20260508100505 6 0 0.0 0.0 0.00 0.36 0.00 95 1015.5
20260508100005 6 139 0.0 1.6 0.00 0.36 0.00 96 1015.4
20260508095505 6 139 0.0 1.6 0.00 0.36 0.00 95 1015.4
20260508095005 6 139 0.0 1.6 0.00 0.36 0.00 95 1015.4
20260508094506 6 0 0.0 0.0 0.00 0.36 0.00 95 1015.4
20260508094005 6 0 0.0 0.0 0.00 0.36 0.00 95 1015.3
20260508093505 6 0 0.0 0.0 0.00 0.36 0.00 95 1015.3
20260508093006 6 0 0.0 0.0 0.00 0.36 0.00 95 1015.3
20260508092505 6 0 0.0 0.0 0.00 0.36 0.00 95 1015.2
20260508092005 6 0 0.0 0.0 0.00 0.36 0.00 95 1015.3
20260508091505 6 0 0.0 0.0 0.00 0.36 0.00 95 1015.2
20260508091006 6 0 0.0 0.0 0.00 0.36 0.00 95 1015.2
20260508090505 6 0 0.0 0.0 0.00 0.36 0.00 95 1015.2
20260508090005 6 0 0.0 0.0 0.00 0.36 0.00 95 1015.3
20260508085505 7 0 0.0 0.0 0.00 0.36 0.00 95 1015.3
20260508085005 7 0 0.0 0.0 0.00 0.36 0.00 95 1015.1
20260508084506 7 0 0.0 0.0 0.00 0.36 0.00 95 1015.1
20260508084005 7 0 0.0 0.0 0.00 0.36 0.00 95 1015.1
20260508083505 7 110 0.0 1.6 0.00 0.38 0.00 95 1015.2
20260508083006 7 95 0.0 1.6 0.00 0.38 0.00 94 1015.1
20260508082505 7 84 0.0 1.6 0.00 0.41 0.00 94 1015.0
20260508082005 7 0 0.0 0.0 0.00 0.41 0.00 94 1014.9
20260508081505 7 0 0.0 0.0 0.00 0.41 0.00 94 1014.9
20260508081006 7 0 0.0 0.0 0.00 0.41 0.00 94 1015.0
20260508080505 7 0 0.0 0.0 0.00 0.41 0.00 94 1014.9
20260508080005 7 0 0.0 0.0 0.00 0.41 0.00 94 1015.0
20260508075505 7 0 0.0 0.0 0.00 0.41 0.00 94 1015.0
20260508075005 7 0 0.0 0.0 0.00 0.41 0.00 94 1014.9
20260508074505 7 0 0.0 0.0 0.00 0.41 0.00 94 1014.9
20260508074005 7 0 0.0 0.0 0.00 0.41 0.00 94 1014.8
20260508073506 7 0 0.0 0.0 0.00 0.41 0.00 93 1014.8
20260508073005 7 243 0.0 1.6 0.00 0.41 0.00 93 1014.8
20260508072505 7 243 0.0 1.6 0.00 0.41 0.00 93 1014.8
20260508072005 8 0 0.0 0.0 0.00 0.41 0.00 93 1014.7
20260508071506 8 208 0.0 1.6 0.00 0.41 0.00 93 1014.8
20260508071005 8 208 0.0 1.6 0.00 0.41 0.00 93 1014.8
20260508070505 8 95 0.0 1.6 0.00 0.41 0.00 92 1014.8
20260508070006 8 95 0.0 1.6 0.00 0.41 0.00 92 1014.7
20260508065505 8 0 0.0 0.0 0.00 0.41 0.00 92 1014.8
20260508065005 8 0 0.0 0.0 0.00 0.41 0.00 92 1014.6
20260508064506 8 0 0.0 0.0 0.00 0.41 0.00 92 1014.6
20260508064005 8 73 0.0 3.2 0.00 0.41 0.00 92 1014.7
20260508063505 8 75 0.0 3.2 0.00 0.41 0.00 93 1014.5
20260508063006 8 92 0.0 1.6 0.00 0.41 0.00 93 1014.5
20260508062505 8 94 0.0 1.6 0.00 0.41 0.00 93 1014.5
20260508062005 8 94 0.0 1.6 0.00 0.41 0.00 93 1014.5
20260508061506 8 0 0.0 0.0 0.00 0.41 0.00 92 1014.4
20260508061005 8 0 0.0 0.0 0.00 0.41 0.00 91 1014.4
20260508060505 8 0 0.0 0.0 0.00 0.41 0.00 92 1014.4
20260508060006 8 0 0.0 0.0 0.00 0.41 0.00 92 1014.5
20260508055505 8 104 0.0 4.8 0.00 0.41 0.00 92 1014.5
20260508055005 8 96 0.0 4.8 0.00 0.41 0.00 92 1014.6
20260508054506 8 90 0.0 4.8 0.00 0.43 0.00 92 1014.5
20260508054005 8 106 0.0 1.6 0.00 0.48 0.00 92 1014.5
20260508053505 8 122 0.0 1.6 0.00 0.48 0.00 92 1014.6
20260508053005 8 0 0.0 0.0 0.00 0.51 0.00 92 1014.4
20260508052505 8 0 0.0 0.0 0.00 0.51 0.00 92 1014.3
20260508052005 8 0 0.0 0.0 0.00 0.51 0.00 91 1014.4
20260508051506 9 0 0.0 0.0 0.00 0.51 0.00 91 1014.4
20260508051005 9 0 0.0 0.0 0.00 0.53 0.00 91 1014.3
20260508050505 9 0 0.0 0.0 0.00 0.56 0.00 90 1014.3
20260508050006 9 0 0.0 0.0 0.00 0.56 0.00 90 1014.3
20260508045505 9 0 0.0 0.0 0.00 0.61 0.00 90 1014.3
20260508045005 9 103 0.0 1.6 0.00 0.66 0.00 90 1014.3
20260508044505 10 103 0.0 1.6 0.00 0.69 0.00 89 1014.2
20260508044005 10 103 0.0 1.6 0.00 0.69 0.00 89 1014.2
20260508043505 10 73 0.0 1.6 0.00 0.69 0.00 89 1014.1
20260508043005 10 101 0.0 3.2 0.00 0.71 0.00 89 1014.2
20260508042505 10 98 0.0 3.2 0.00 0.71 0.00 88 1014.3
20260508042006 10 59 0.0 1.6 0.00 0.71 0.00 88 1014.2
20260508041505 10 61 0.0 1.6 0.00 0.74 0.00 87 1014.2
20260508041005 10 61 0.0 1.6 0.00 0.74 0.00 87 1014.2
20260508040505 10 0 0.0 0.0 0.00 0.74 0.00 87 1014.2
20260508040007 10 0 0.0 0.0 0.00 0.74 0.00 87 1014.2
20260508035505 10 91 0.0 1.6 0.00 0.74 0.74 87 1014.2
20260508035005 10 91 0.0 1.6 0.00 0.74 0.74 87 1014.2
20260508034506 10 0 0.0 0.0 0.00 0.74 0.74 86 1014.2
20260508034005 10 0 0.0 0.0 0.00 0.74 0.74 86 1014.3
20260508033505 10 91 0.0 3.2 0.00 0.74 0.74 86 1014.4
20260508033005 11 91 0.0 3.2 0.00 0.74 0.74 85 1014.4
20260508032505 11 95 0.0 1.6 0.00 0.74 0.74 85 1014.3
20260508032005 11 99 0.0 1.6 0.00 0.74 0.74 84 1014.2
20260508031505 11 99 0.0 1.6 0.00 0.74 0.74 84 1014.2
20260508031005 11 0 0.0 0.0 0.00 0.74 0.74 82 1014.3
20260508030505 11 0 0.0 0.0 0.00 0.74 0.74 82 1014.2
20260508030005 11 0 0.0 0.0 0.00 0.74 0.74 82 1014.2
20260508025505 11 0 0.0 0.0 0.00 0.74 0.74 80 1014.2
20260508025005 11 0 0.0 0.0 0.00 0.74 0.74 80 1014.1
20260508024505 11 41 0.0 1.6 0.00 0.74 0.74 80 1014.1
20260508024005 11 41 0.0 1.6 0.00 0.74 0.74 79 1013.9
20260508023505 12 0 0.0 0.0 0.00 0.74 0.74 78 1013.9
20260508023005 12 63 0.0 3.2 0.00 0.76 0.74 78 1013.8
20260508022505 12 63 0.0 3.2 0.00 0.76 0.74 77 1013.7
20260508022005 12 273 1.6 6.4 0.00 0.79 0.74 76 1013.7
20260508021505 12 280 1.6 8.0 0.00 0.79 0.74 76 1013.7
20260508021005 12 282 0.0 8.0 0.00 0.79 0.74 76 1013.7
20260508020505 12 293 0.0 3.2 0.00 0.79 0.74 77 1013.7
20260508020005 12 323 0.0 3.2 0.00 0.79 0.74 77 1013.7
20260508015505 12 328 0.0 3.2 0.00 0.79 0.74 76 1013.6
20260508015005 12 315 0.0 3.2 0.00 0.79 0.74 75 1013.5
20260508014505 12 257 0.0 1.6 0.00 0.79 0.74 76 1013.4
20260508014005 12 0 0.0 0.0 0.00 0.79 0.74 76 1013.2
20260508013505 12 223 0.0 1.6 0.00 0.79 0.74 75 1013.1
20260508013006 13 223 0.0 1.6 0.00 0.79 0.74 74 1013.0
20260508012505 13 0 0.0 0.0 0.00 0.81 0.74 71 1012.9
20260508012005 13 0 0.0 0.0 0.00 0.84 0.74 71 1012.9
20260508011505 13 0 0.0 0.0 0.00 0.89 0.74 72 1012.9
20260508011005 13 0 0.0 0.0 0.00 0.91 0.74 68 1012.6
20260508010505 14 0 0.0 0.0 0.00 0.97 0.74 68 1012.6
20260508010005 15 323 1.6 1.6 0.00 0.97 0.74 67 1012.5
20260508005505 15 285 1.6 4.8 0.00 0.97 0.74 64 1012.5
20260508005005 15 288 3.2 4.8 0.00 0.97 0.74 63 1012.4
20260508004505 15 292 3.2 8.0 0.00 0.97 0.74 64 1012.4
20260508004005 15 293 3.2 8.0 0.00 0.97 0.74 63 1012.3
20260508003505 15 302 3.2 8.0 0.00 0.99 0.74 63 1012.2
20260508003006 16 306 3.2 11.3 0.00 1.02 0.74 63 1012.2
20260508002505 16 316 1.6 11.3 0.00 1.04 0.74 63 1012.1
20260508002005 16 320 3.2 8.0 0.00 1.09 0.74 64 1012.1
20260508001505 16 311 3.2 8.0 0.00 1.12 0.74 63 1012.1
20260508001005 17 304 3.2 6.4 0.00 1.14 0.74 63 1011.9
20260508000505 17 297 4.8 9.7 0.00 1.17 0.74 62 1011.8
20260508000006 17 302 4.8 11.3 0.00 1.19 0.74 61 1011.8
20260507235504 17 311 6.4 11.3 0.00 1.22 0.74 60 1011.7
20260507235005 18 304 6.4 17.7 0.00 1.24 0.74 60 1011.7
20260507234505 18 302 6.4 17.7 0.00 1.27 0.74 58 1011.8
20260507234005 18 305 3.2 12.9 0.00 1.27 0.74 59 1011.6
20260507233505 18 319 3.2 9.7 0.00 1.27 0.74 60 1011.8
20260507233005 18 335 3.2 12.9 0.00 1.27 0.74 59 1011.6
20260507232505 18 320 4.8 12.9 0.00 1.27 0.74 61 1011.6
20260507232005 18 287 6.4 14.5 0.00 1.27 0.74 61 1011.6
20260507231505 18 276 8.0 19.3 0.00 1.27 0.74 60 1011.4
20260507231005 18 282 9.7 19.3 0.00 1.27 0.74 59 1011.3
20260507230504 18 281 12.9 22.5 0.00 1.27 0.74 61 1011.3
20260507230005 18 277 12.9 24.1 0.00 1.27 0.74 59 1011.1
20260507225505 18 284 11.3 24.1 0.00 1.27 0.74 60 1011.0
20260507225005 18 282 9.7 25.7 0.00 1.27 0.74 60 1010.9
20260507224505 18 275 9.7 25.7 0.00 1.30 0.74 60 1010.9
20260507224005 18 279 9.7 22.5 0.00 1.30 0.74 62 1010.7
20260507223504 18 282 11.3 22.5 0.00 1.30 0.74 63 1010.6
20260507223005 19 280 11.3 22.5 0.00 1.30 0.74 63 1010.4
20260507222505 19 278 9.7 25.7 0.00 1.30 0.74 62 1010.2
20260507222005 20 279 6.4 25.7 0.00 1.30 0.74 61 1010.2
20260507221505 20 283 6.4 17.7 0.00 1.30 0.74 61 1010.1
20260507221005 20 291 6.4 14.5 0.00 1.30 0.74 61 1010.0
20260507220505 20 297 6.4 19.3 0.00 1.30 0.74 58 1010.0
20260507220005 21 292 6.4 19.3 0.00 1.30 0.74 59 1009.8
20260507215505 21 287 8.0 12.9 0.00 1.30 0.74 57 1009.6
20260507215005 21 298 9.7 16.1 0.00 1.30 0.74 57 1009.6
20260507214504 21 295 9.7 20.9 0.00 1.30 0.74 57 1009.4
20260507214005 22 291 9.7 20.9 0.00 1.30 0.74 56 1009.4
20260507213505 22 306 9.7 19.3 0.00 1.30 0.74 57 1009.5
20260507213004 22 300 9.7 19.3 0.00 1.30 0.74 57 1009.4
20260507212505 22 285 9.7 17.7 0.00 1.30 0.74 56 1009.3
20260507212005 22 285 9.7 19.3 0.00 1.30 0.74 56 1009.1
20260507211505 22 286 8.0 19.3 0.00 1.30 0.74 57 1009.1
20260507211005 23 285 9.7 17.7 0.00 1.30 0.74 55 1009.0
20260507210505 23 294 9.7 20.9 0.00 1.30 0.74 56 1008.9
20260507210005 23 295 9.7 20.9 0.00 1.30 0.74 57 1009.0
20260507205505 23 287 8.0 19.3 0.00 1.30 0.74 58 1008.9
20260507205005 23 280 8.0 17.7 0.00 1.30 0.74 57 1008.9
20260507204505 23 280 8.0 17.7 0.00 1.30 0.74 57 1009.0
20260507204005 23 288 9.7 20.9 0.00 1.30 0.74 58 1008.8
20260507203505 23 295 9.7 22.5 0.00 1.30 0.74 56 1008.8
20260507203005 23 302 9.7 22.5 0.00 1.30 0.74 59 1008.7
20260507202505 23 296 9.7 20.9 0.00 1.30 0.74 56 1008.6
20260507202005 24 288 9.7 19.3 0.00 1.30 0.74 59 1008.5
20260507201505 24 292 9.7 19.3 0.00 1.30 0.74 57 1008.6
20260507201005 24 286 9.7 17.7 0.00 1.30 0.74 59 1008.6
20260507200504 24 280 9.7 22.5 0.00 1.30 0.74 59 1008.5
20260507200005 24 284 8.0 25.7 0.00 1.30 0.74 58 1008.5
20260507195505 24 292 8.0 25.7 0.00 1.30 0.74 60 1008.3
20260507195005 24 309 8.0 16.1 0.00 1.30 0.74 61 1008.3
20260507194505 24 313 9.7 22.5 0.00 1.30 0.74 59 1008.3
20260507194005 24 311 8.0 22.5 0.00 1.30 0.74 57 1008.3
20260507193505 24 302 8.0 19.3 0.00 1.30 0.74 57 1008.4
20260507193005 24 296 8.0 19.3 0.00 1.30 0.74 58 1008.4
20260507192505 24 295 8.0 19.3 0.00 1.30 0.74 59 1008.5
20260507192005 24 291 9.7 16.1 0.00 1.30 0.74 59 1008.6
20260507191504 24 293 8.0 22.5 0.00 1.30 0.74 59 1008.6
20260507191006 25 296 6.4 22.5 0.00 1.30 0.74 60 1008.6
20260507190505 25 298 6.4 19.3 0.00 1.30 0.74 58 1008.5
20260507190005 25 279 4.8 14.5 0.00 1.30 0.74 63 1008.6